Weather Roundup
Issued by NWS

Home | Current Version | Previous Version | Graphics & Text | Print | Product List | Glossary Off
Versions: 1 2 3 4 5 6 7 8 9 10 11 12 13 14 15 16 17 18 19 20 21 22 23 24 25 26 27 28 29 30 31 32 33 34 35 36 37 38 39 40 41 42 43 44 45 46 47 48 49 50

416
NZUS93 KARX 221059
HRRWXR

CURRENT HOURLY OBSERVATIONS ACROSS
MUCH OF THE UPPER MISSISSIPPI VALLEY
NATIONAL WEATHER SERVICE LA CROSSE WI
500 AM CST WED NOV 22 2017


...SOUTHEAST MINNESOTA...


CITY           SKY/WX    TMP DP  RH WIND       PRES   REMARKS
ROCHESTER      CLOUDY    12  10  92 W6        30.32S WCI   3
ROCHESTER/MAYO FAIR      17  12  83 W5        30.33F WCI   9
WINONA         CLOUDY    18  10  73 NW6       30.36S WCI   9
AUSTIN         NOT AVBL
ALBERT LEA     CLOUDY    12   9  85 CALM      30.32F
DODGE CENTER   CLOUDY    12   9  85 CALM      30.31F
PRESTON          N/A     12   9  87 NW5       30.32S WCI   4
OWATONNA       CLOUDY    10   9  92 CALM      30.32F
FARIBAULT      CLOUDY    12  10  92 CALM      30.32F
$$

...ELSEWHERE IN MINNESOTA...


CITY           SKY/WX    TMP DP  RH WIND       PRES   REMARKS
MINNEAPOLIS    CLOUDY    16  10  77 CALM      30.33F
INTNL FALLS      N/A      3  -2  79 SW5       30.18F WCI  -6
DULUTH         CLOUDY     8   6  92 W6        30.22S WCI  -2
RED WING       CLOUDY    12   7  79 CALM      30.35S
REDWOOD FALLS  CLOUDY    12   6  77 SW5       30.32F WCI   4
MANKATO        CLOUDY    13   9  84 SW5       30.34F WCI   5
WORTHINGTON    CLOUDY    12   7  80 S6        30.31F WCI   3
FAIRMONT       CLOUDY    12   8  84 W6        30.35F WCI   3
$$

...SOUTHWEST WISCONSIN...


CITY           SKY/WX    TMP DP  RH WIND       PRES   REMARKS
LA CROSSE      PTCLDY    18  11  74 N5        30.35R WCI  11
PRAIRIE DU CHI PTCLDY    19  11  72 CALM      30.35R
BOSCOBEL       CLOUDY    16  11  80 CALM      30.37R
LONE ROCK      NOT AVBL
PLATTEVILLE    CLOUDY    18  15  86 CALM      30.32S
FORT MC COY    CLOUDY    16  10  80 NW5       30.34S WCI   8
CAMP DOUGLAS   CLOUDY    11   7  85 NW6       30.32R WCI   1
MAUSTON-NEW LI CLOUDY    17  11  80 NW3       30.32R
VIROQUA        FAIR      17  13  86 N7        30.30R WCI   7
WIS DELLS      CLEAR     18  11  74 NW5       30.31R WCI  11
$$

...ELSEWHERE IN WISCONSIN...


CITY           SKY/WX    TMP DP  RH WIND       PRES   REMARKS
MILWAUKEE      CLEAR     22  14  71 NW6       30.31R WCI  14
MADISON        CLEAR     18  11  74 N7        30.31R WCI   9
GREEN BAY      CLOUDY    24  17  74 NW8       30.29R WCI  15
EAU CLAIRE     NOT AVBL
BLACK RVR FLS  FAIR       8   5  86 CALM      30.34R
MEDFORD        CLOUDY    16   9  72 NW6       30.26R WCI   8
WAUSAU         CLOUDY    17  10  74 NW5       30.25F WCI  10
WIS RAPIDS     CLOUDY    15   8  73 N6        30.31S WCI   6
MARSHFIELD     CLOUDY    16   8  71 NW5       30.27R WCI   9
RICE LAKE      CLOUDY    14  10  84 CALM      30.31F
$$

...NORTHEAST IOWA...


CITY           SKY/WX    TMP DP  RH WIND       PRES   REMARKS
WATERLOO       CLOUDY    14  10  84 W6        30.37R WCI   5
DUBUQUE        CLOUDY    17  12  80 CALM      30.33R
DECORAH        CLOUDY    16  12  86 NW7       30.31S WCI   6
MASON CITY     CLOUDY    12   8  84 NW6       30.36R WCI   3
CHARLES CITY   CLOUDY    14  12  92 NW6       30.35S WCI   5
OELWEIN        CLOUDY    14  14 100 NW7       30.35R WCI   4
$$

...ELSEWHERE IN IOWA...


CITY           SKY/WX    TMP DP  RH WIND       PRES   REMARKS
DES MOINES     CLOUDY    19  11  70 NW5       30.40R WCI  12
IOWA CITY      CLOUDY    20  13  74 NW3       30.40R
FORT DODGE     CLOUDY    14   9  80 W3        30.37S
MARSHALLTOWN   CLOUDY    14  10  84 NW6       30.37R WCI   5
CEDAR RAPIDS   CLOUDY    14  10  84 CALM      30.36R
$$

...NORTHERN ILLINOIS...


CITY           SKY/WX    TMP DP  RH WIND       PRES   REMARKS
CHICAGO-OHARE  CLEAR     23  15  71 NW6       30.31R WCI  16
CHICAGO-MIDWAY NOT AVBL
MOLINE         CLOUDY    20  12  71 W3        30.38R
ROCKFORD       CLOUDY    19  13  77 NW6       30.35R WCI  11
PEORIA         CLOUDY    20  15  81 NW3       30.37R
$$

NOTE: "FAIR" INDICATES FEW OR NO CLOUDS BELOW 12,000 FEET WITH NO
SIGNIFICANT WEATHER AND/OR OBSTRUCTIONS TO VISIBILITY. WIND
SPEEDS ARE IN MILES-PER-HOUR.




USA.gov is the U.S. government's official web portal to all federal, state and local government web resources and services.